Limnos, Greece

9:09 PM EEST on May 26, 2017 (GMT +0300)
Limnos

Weather History for LGLM - October, 2012

Change the Weather History Date:

Monday, October 22, 2012

  Actual Average Record
Temperature  
Mean Temperature 66 °F -  
Max Temperature 68 °F 62 °F 73 °F (2001)
Min Temperature 63 °F 50 °F 41 °F (1997)
Growing Degree Days 16 (Base 50)    
Moisture  
Dew Point 56 °F    
Average Humidity 70    
Maximum Humidity 82    
Minimum Humidity 56    
Precipitation  
Precipitation 0.00 in 0.09 in - ()
Sea Level Pressure  
Sea Level Pressure 29.99 in    
Wind  
Wind Speed 18 mph ()    
Max Wind Speed 25 mph    
Max Gust Speed 37 mph    
Visibility 6.2 miles    
Events Rain    
Averages and records for this station are not official NWS values.
T = Trace of Precipitation, MM = Missing Value Source: Averaged Metar Reports

Daily Weather History Graph

Daily Weather History Graph

Search for Another Location

Airport or City:

Trip Planner

Search our weather history database for the weather conditions in past years. The results will help you decide how hot, cold, wet, or windy it might be!

Date:

Astronomy

Oct. 22, 2012 Rise Set
Actual Time 7:37 AM EEST 6:29 PM EEST
Civil Twilight 7:09 AM EEST 6:56 PM EEST
Nautical Twilight 6:37 AM EEST 7:28 PM EEST
Astronomical Twilight 6:06 AM EEST 7:59 PM EEST
Moon 2:24 PM EEST (10/22) 12:03 AM EEST (10/22)
Length of Visible Light 11h 47m
Length of Day
10h 52m
First Quarter, 53% of the Moon is Illuminated
Oct 22
First Quarter
Oct 29
Full
Nov 7
Last Quarter
Nov 14
New
Nov 20
First Quarter

Hourly Weather History & Observations

Time (EEST) Temp. Dew Point Humidity Pressure Visibility Wind Dir Wind Speed Gust Speed Precip Events Conditions
12:20 AM 64.4 °F 57.2 °F 77% 30.01 in - NNE 20.7 mph - N/A Rain Light Rain
12:50 AM 64.4 °F 57.2 °F 77% 30.01 in - NNE 17.3 mph - N/A Rain Light Rain
1:20 AM 64.4 °F 57.2 °F 77% 30.01 in - NNE 13.8 mph - N/A   Unknown
1:50 AM 64.4 °F 57.2 °F 77% 30.01 in - NE 19.6 mph 32.2 mph N/A Rain Light Rain
2:20 AM 64.4 °F 55.4 °F 73% 30.01 in - NE 18.4 mph - N/A   Unknown
2:50 AM 64.4 °F 57.2 °F 77% 30.01 in 6.2 mi NNE 13.8 mph 25.3 mph N/A   Mostly Cloudy
3:00 AM 64 °F 57 °F 70% 30.02 in 6 mi NNE 13.8 mph - -   Partly Cloudy
3:20 AM 64.4 °F 57.2 °F 77% 30.01 in - NNE 20.7 mph - N/A   Unknown
3:50 AM 64.4 °F 55.4 °F 73% 29.98 in - NNE 20.7 mph - N/A   Unknown
4:20 AM 64.4 °F 55.4 °F 73% 29.98 in - NNE 17.3 mph - N/A   Unknown
4:50 AM 64.4 °F 55.4 °F 73% 29.98 in - NE 21.9 mph 33.4 mph N/A   Unknown
5:20 AM 64.4 °F 57.2 °F 77% 30.01 in 6.2 mi NE 18.4 mph 29.9 mph N/A   Mostly Cloudy
5:50 AM 64.4 °F 55.4 °F 73% 30.01 in 6.2 mi NE 19.6 mph 31.1 mph N/A   Mostly Cloudy
6:20 AM 64.4 °F 57.2 °F 77% 30.01 in 6.2 mi NE 19.6 mph 31.1 mph N/A   Mostly Cloudy
6:50 AM 64.4 °F 55.4 °F 73% 29.98 in 6.2 mi NNE 23.0 mph 34.5 mph N/A   Mostly Cloudy
7:20 AM 64.4 °F 55.4 °F 73% 29.98 in 6.2 mi NNE 23.0 mph 34.5 mph N/A   Mostly Cloudy
7:50 AM 64.4 °F 55.4 °F 73% 29.98 in 6.2 mi NNE 25.3 mph 36.8 mph N/A   Mostly Cloudy
8:20 AM 64.4 °F 57.2 °F 77% 29.98 in 6.2 mi NNE 25.3 mph 36.8 mph N/A   Mostly Cloudy
8:50 AM 62.6 °F 57.2 °F 82% 30.01 in 6.2 mi NNE 23.0 mph 34.5 mph N/A   Mostly Cloudy
9:00 AM 63 °F 57 °F 76% 30.01 in 6 mi NNE 23.0 mph - -   Partly Cloudy
9:20 AM 64.4 °F 57.2 °F 77% 30.01 in 6.2 mi NNE 21.9 mph 33.4 mph N/A   Mostly Cloudy
9:50 AM 68.0 °F 57.2 °F 68% 30.01 in 6.2 mi NE 17.3 mph 28.8 mph N/A   Scattered Clouds
10:20 AM 66.2 °F 57.2 °F 73% 30.01 in 6.2 mi NE 23.0 mph 34.5 mph N/A   Scattered Clouds
10:50 AM 68.0 °F 57.2 °F 68% 30.01 in 6.2 mi NE 23.0 mph 34.5 mph N/A   Scattered Clouds
11:20 AM 68.0 °F 57.2 °F 68% 30.01 in 6.2 mi NE 23.0 mph 34.5 mph N/A   Scattered Clouds
11:50 AM 68.0 °F 55.4 °F 64% 30.01 in 6.2 mi NE 19.6 mph 31.1 mph N/A   Scattered Clouds
12:20 PM 68.0 °F 55.4 °F 64% 30.01 in 6.2 mi NE 19.6 mph 31.1 mph N/A   Scattered Clouds
12:50 PM 68.0 °F 55.4 °F 64% 29.98 in 6.2 mi NNE 21.9 mph 33.4 mph N/A   Scattered Clouds
1:20 PM 69.8 °F 57.2 °F 64% 29.98 in 6.2 mi NNE 21.9 mph 33.4 mph N/A   Mostly Cloudy
1:50 PM 68.0 °F 55.4 °F 64% 29.98 in 6.2 mi NNE 21.9 mph 33.4 mph N/A   Mostly Cloudy
2:20 PM 69.8 °F 57.2 °F 64% 29.98 in 6.2 mi NNE 17.3 mph 28.8 mph N/A   Mostly Cloudy
2:50 PM 68.0 °F 55.4 °F 64% 29.98 in 6.2 mi NE 17.3 mph 28.8 mph N/A   Mostly Cloudy
3:00 PM 68 °F 56 °F 56% 29.99 in 6 mi NE 17.3 mph - -   Mostly Cloudy
3:20 PM 68.0 °F 57.2 °F 68% 29.98 in 6.2 mi NE 17.3 mph 28.8 mph N/A   Mostly Cloudy
3:50 PM 68.0 °F 57.2 °F 68% 29.98 in 6.2 mi NE 19.6 mph 31.1 mph N/A   Mostly Cloudy
4:20 PM 68.0 °F 57.2 °F 68% 29.98 in 6.2 mi NE 19.6 mph 31.1 mph N/A   Mostly Cloudy
4:50 PM 68.0 °F 55.4 °F 64% 29.98 in 6.2 mi NE 18.4 mph 29.9 mph N/A   Mostly Cloudy
5:20 PM 66.2 °F 55.4 °F 68% 29.95 in 6.2 mi NE 19.6 mph 31.1 mph N/A   Mostly Cloudy
5:50 PM 66.2 °F 55.4 °F 68% 29.95 in 6.2 mi NNE 18.4 mph 29.9 mph N/A   Mostly Cloudy
6:20 PM 66.2 °F 55.4 °F 68% 29.95 in 6.2 mi NNE 17.3 mph 28.8 mph N/A   Mostly Cloudy
6:50 PM 66.2 °F 55.4 °F 68% 29.98 in 6.2 mi NE 17.3 mph 28.8 mph N/A   Scattered Clouds
7:20 PM 66.2 °F 55.4 °F 68% 29.98 in 6.2 mi NE 17.3 mph 28.8 mph N/A   Scattered Clouds
7:50 PM 66.2 °F 55.4 °F 68% 29.98 in 6.2 mi NE 18.4 mph 29.9 mph N/A   Scattered Clouds
8:20 PM 66.2 °F 57.2 °F 73% 29.98 in 6.2 mi NE 17.3 mph 28.8 mph N/A   Scattered Clouds
8:50 PM 66.2 °F 55.4 °F 68% 29.98 in 6.2 mi NE 17.3 mph 28.8 mph N/A   Scattered Clouds
9:00 PM 67 °F 56 °F 58% 29.99 in 6 mi NE 17.3 mph - -   Partly Cloudy
9:20 PM 66.2 °F 55.4 °F 68% 29.98 in 6.2 mi NE 17.3 mph 28.8 mph N/A   Mostly Cloudy
9:50 PM 66.2 °F 55.4 °F 68% 29.98 in 6.2 mi NE 17.3 mph 28.8 mph N/A   Mostly Cloudy
10:20 PM 66.2 °F 55.4 °F 68% 29.98 in - NE 18.4 mph - N/A   Unknown
10:50 PM 66.2 °F 55.4 °F 68% 29.98 in - NE 18.4 mph - N/A   Unknown
11:20 PM 66.2 °F 55.4 °F 68% 29.98 in - NE 18.4 mph - N/A   Unknown
11:50 PM 68.0 °F 55.4 °F 64% 29.98 in 6.2 mi NNE 19.6 mph 31.1 mph N/A   Mostly Cloudy